Regional Weather Roundup
Issued by NWS State College, PA

Home | Current Version | Previous Version | Text Only | Print | Product List | Glossary On
Versions: 1 2 3 4 5 6 7 8 9 10 11 12 13 14 15 16 17 18 19 20 21 22 23 24 25 26 27 28 29 30 31 32 33 34 35 36 37 38 39 40 41 42 43 44 45 46 47 48 49 50
696
ASUS41 KCTP 180610
RWRCTP

REGIONAL WEATHER ROUNDUP
NATIONAL WEATHER SERVICE STATE COLLEGE PA
100 AM EST MON DEC 18 2017

Note: "fair" indicates few or no clouds below 12,000 feet with no
significant weather and/or obstructions to visibility.

* = STATION THAT DOES NOT REPORT PRECIPITATION /E.G. RAIN...SNOW...ETC/
    THUNDER OR FOG.

PAZ002>004-007>009-013>016-020>023-029>032-180700-
WESTERN PENNSYLVANIA

CITY           SKY/WX    TMP DP  RH WIND       PRES   REMARKS
ERIE           CLOUDY    37  32  82 S12       30.05F
MEADVILLE      CLOUDY    34  33  96 SW8       30.04F
FRANKLIN*      CLOUDY    34  32  92 SW9       30.06F
NEW CASTLE     CLOUDY    34  33  96 CALM      30.09F
BEAVER COUNTY  NOT AVBL
BUTLER*        CLOUDY    35  33  92 CALM      30.09S
PITTSBURGH INT CLOUDY    40  32  73 SW6       30.08F
PITTSBURGH     CLOUDY    37  30  75 S7        30.08F
INDIANA*       CLOUDY    34  34 100 CALM      30.11F
LATROBE        CLOUDY    37  34  87 SW8       30.10S
WASHINGTON CO* CLOUDY    36  32  85 SW6       30.11F
$$

PAZ004>006-010>012-017>019-024>028-033>037-041-042-045-046-049>053-180700-
CENTRAL PENNSYLVANIA

CITY           SKY/WX    TMP DP  RH WIND       PRES   REMARKS
BRADFORD       CLOUDY    34  33  96 W3        30.03F
DUBOIS         CLOUDY    34  32  92 SW5       30.04F FOG
CLEARFIELD     CLOUDY    32  31  96 N5        30.07S FOG
JOHNSTOWN      CLOUDY    36  30  79 SW8       30.03F
ALTOONA        CLOUDY    36  33  89 CALM      30.07F
STATE COLLEGE  CLOUDY    31  30  94 CALM      30.09F
WILLIAMSPORT   CLOUDY    36  28  73 CALM      30.12F
SELINSGROVE    CLOUDY    33  29  85 CALM      30.14F
FT INDIANTOWN  CLOUDY    35  28  77 CALM      30.14F
CAPITAL CITY   CLOUDY    36  27  69 E3        30.15S
HARRISBURG     CLOUDY    36  29  75 VRB3      30.14F
YORK           CLOUDY    36  31  82 N5        30.13S
$$

PAZ038>040-043-044-047-048-054-055-060>062-067>071-180700-
EASTERN PENNSYLVANIA

CITY           SKY/WX    TMP DP  RH WIND       PRES   REMARKS
SCRANTON       CLOUDY    32  26  78 CALM      30.10F
MOUNT POCONO   CLOUDY    28  26  92 SE3       30.08F
ALLENTOWN      CLOUDY    34  26  72 NE6       30.16S
QUAKERTOWN*    CLOUDY    34  30  86 NE3       30.15F
READING        CLOUDY    34  30  85 N5        30.14F
LANCASTER      CLOUDY    36  31  82 CALM      30.14S
COATESVILLE    CLOUDY    36  30  80 CALM      30.13F
POTTSTOWN      CLOUDY    34  29  82 CALM      30.16F
BLUE BELL      CLOUDY    34  32  93 CALM      30.16F
DOYLESTOWN     CLOUDY    34  29  82 NE5       30.14F
WILLOW GROVE   NOT AVBL
NORTH PHILA    CLOUDY    39  33  79 NE3       30.16F
PHILADELPHIA   CLOUDY    37  32  82 N5        30.16F
$$




USA.gov is the U.S. government's official web portal to all federal, state and local government web resources and services.